CZ-6A DEB, 56638

Orbit data source: Space-Track

CZ-6A DEB, 56638 is space debris in SSO originally from a launch on Fri, 11 Nov 2022 UTC launched from the Taiyaun Space Center, China (TSC). Debris objects in space refer to the collection of defunct objects orbiting the Earth. Examples of debris include non-operational satellites, rocket bodies, and fragments generated from explosions, collisions, or faulty payload assembly.

Loading next visibility...
Identifier
56638, 2022-151AFN
Orbit
SSO
Country
Flag of CNCN / PRC
Related business
Manufacturer
SAST
Mission
Spacecraft
Bus & Motor
Unknown
Mass
Unknown
Launch date (UTC)
2022-11-11 (4 years ago)
Launch vehicle
Unknown
Launch site
Taiyaun Space Center, China (TSC)
Object type
Payload
Rocket body
Debris
Shape & HBR
Unknown shape, 0.1 m
Radar Cross Section
Small (<0.1 m²)

Expand to show TLE details & history
Last TLE update: 1 week ago

TLE from 1 week ago
0 CZ-6A DEB
1 56638U 22151AFN 26166.34144595  .00000505  00000-0  26307-3 0  9996
2 56638  98.8228 186.6226 0049726   8.2616 351.9367 14.18376977162533
Epoch: 2026-06-15T08:11Z
TLE epoch observation values (Epoch: 2026-06-15T08:11:40.930Z)
Latitude
0.00001°
Longitude
160.07284°
Altitude
798.259 km
Speed
7.473 km/s
True Right ascension
12h 26m 29s
True Declination
0° 00' 00"
Sunlit
Object was in daylight at epoch
Visualization orbit readout
Latitude
Unknown
Longitude
Unknown
Altitude
Unknown
Speed
Unknown
Apparent Right ascension
Unknown
Apparent Declination
Unknown
Sunlit
N/A
Visualization observer readout
Local Sidereal Time
21:33:55
Azimuth
Unknown
Elevation
Unknown
Doppler factor
Unknown
Orbital elements
Apogee altitude
863.846 km
Perigee altitude
792.18 km
Semi-major axis
7,206.15 km
Eccentricity
0.00497
Inclination
98.8228°
RAAN
186.6226°
Arg. of periapsis
8.2616°
True anomaly
351.85628°
Mean anomaly
351.9367°
Eccentric anomaly
351.89654°
Mean motion
3.54804 °/min
Orbital period
101.46 mins
BSTAR
0.00026307
Loading maneuver chart data...
Computing Atmospheric mass density...
Loading historical data...
Loading historical data...
Loading historical data...
Loading historical data...
Loading historical data...
Loading historical data...
Loading historical data...

Documentation

Showing up to 5 results
|